GOES 16 (41866 NORAD) Tracking and Keplerian Element Data

This shows tracking and keplerian element data for the satellite.

Feedback or suggestion? Click here.




ElementValue
Catalog41866
NameGOES 16
Epoch Orbit1781
Epoch Day268.50697319
Epoch Year2021
RAAN86.5349
Inclination0.1105
Eccentricity0.0001053
Argument of Perigee138.006
Mean Anonmoly247.3295
Mean Motion1.00272734
Decay Rate-2.52E-06
L11 41866U 16071A 21268.50697319 -.00000252 00000-0 00000-0 0 9999
L22 41866 0.1105 86.5349 0001053 138.0060 247.3295 1.00272734 17811

Live tracking and technical data element details for GOES 16 (NORAD 41866). GOES 16 can be tracked NOW for your location showing map with azimuth and elevation plus other details from your city location.

Track the satellite on the map from your city or location and see movement details for azimuth, elevation, latitude, longitude, range, height, and movement on the map or in text.







IsCatalogInMostPopularTable: catalog: 41866, numindb: 545
Update: records affected: 1



GetName: 41866 GOES 16

Hit Count: updated at: Mon, 27 Sep 2021 00:58:13 GMT